KC5DAQ-25 Weather Reports


time (UTC)temp
C
wind
direction
speed
KPH
gust
KPH
rain 1hr
cm
rain 24hr
cm
rain mn
cm
humidity
%
barometer
mb
20260502170434 21 259 3.2 11.3 0.00 1.19 0.00 62 1012.7
20260502170334 21 100 3.2 11.3 0.00 1.19 0.00 65 1012.7
20260502170232 21 0 3.2 9.7 0.00 1.19 0.00 65 1012.7
20260502170131 21 107 3.2 9.7 0.00 1.19 0.00 65 1012.7
20260502164325 20 235 0.0 3.2 0.00 1.22 0.00 69 1012.8
20260502164226 20 235 0.0 3.2 0.00 1.22 0.00 69 1012.8
20260502164128 20 235 0.0 3.2 0.00 1.22 0.00 69 1012.8
20260502164024 20 235 0.0 3.2 0.00 1.22 0.00 69 1012.8
20260502163923 20 235 0.0 4.8 0.00 1.22 0.00 69 1012.8
20260502163823 20 235 0.0 4.8 0.00 1.22 0.00 69 1012.8
20260502163723 20 235 0.0 4.8 0.00 1.22 0.00 69 1012.8
20260502163622 20 235 0.0 4.8 0.00 1.22 0.00 69 1012.7
20260502163516 20 243 0.0 4.8 0.00 1.22 0.00 69 1012.8
20260502163418 20 243 1.6 4.8 0.00 1.22 0.00 71 1012.7
20260502163318 20 258 1.6 4.8 0.00 1.22 0.00 71 1012.7
20260502163214 20 265 1.6 4.8 0.00 1.22 0.00 71 1012.8
20260502163115 20 296 3.2 4.8 0.00 1.24 0.00 71 1012.7
20260502163015 20 296 1.6 6.4 0.00 1.24 0.00 71 1012.7
20260502162914 20 296 1.6 8.0 0.00 1.24 0.00 71 1012.7
20260502162812 20 288 1.6 9.7 0.00 1.24 0.00 71 1012.8
20260502162710 20 324 1.6 9.7 0.00 1.24 0.00 71 1012.8
20260502162612 20 326 0.0 9.7 0.00 1.24 0.00 71 1012.8
20260502162511 20 326 1.6 9.7 0.00 1.24 0.00 71 1012.7
20260502162405 20 326 1.6 9.7 0.00 1.24 0.00 68 1012.7
20260502162304 20 44 0.0 9.7 0.00 1.24 0.00 68 1012.8
20260502162205 20 44 3.2 9.7 0.00 1.24 0.00 68 1012.8
20260502162102 20 41 4.8 11.3 0.00 1.24 0.00 68 1012.9
20260502162001 20 83 4.8 11.3 0.00 1.24 0.00 69 1012.9
20260502161903 20 63 3.2 11.3 0.00 1.24 0.00 69 1012.7
20260502161804 20 71 1.6 11.3 0.00 1.27 0.00 69 1012.8
20260502161703 20 72 3.2 11.3 0.00 1.27 0.00 69 1012.8
20260502161606 20 80 3.2 11.3 0.00 1.27 0.00 69 1012.7
20260502161502 20 61 3.2 11.3 0.00 1.27 0.00 69 1012.8
20260502161403 20 72 1.6 11.3 0.00 1.27 0.00 70 1012.8
20260502161303 20 93 3.2 11.3 0.00 1.27 0.00 70 1012.8
20260502161202 20 113 4.8 11.3 0.00 1.27 0.00 72 1012.8
20260502161103 20 281 1.6 9.7 0.00 1.27 0.00 72 1012.8
20260502161002 19 234 1.6 9.7 0.00 1.30 0.00 73 1012.8
20260502160904 19 196 1.6 9.7 0.00 1.30 0.00 73 1012.7
20260502160803 19 195 1.6 9.7 0.00 1.30 0.00 73 1012.7
20260502160703 19 204 3.2 9.7 0.00 1.30 0.00 73 1012.7
20260502160602 19 56 1.6 9.7 0.00 1.30 0.00 71 1012.7
20260502160502 19 61 3.2 9.7 0.00 1.30 0.00 71 1012.7
20260502160404 19 86 3.2 9.7 0.00 1.32 0.00 72 1012.6
20260502160302 19 89 3.2 9.7 0.00 1.35 0.00 72 1012.7
20260502160202 19 0 1.6 4.8 0.00 1.35 0.00 72 1012.6
20260502160104 19 159 0.0 4.8 0.00 1.35 0.00 72 1012.6
20260502152331 18 271 1.6 6.4 0.00 1.80 0.00 78 1012.5
20260502152232 17 274 1.6 8.0 0.00 1.83 0.00 78 1012.4
20260502152131 17 345 1.6 8.0 0.00 1.83 0.00 78 1012.5
20260502152031 17 110 3.2 8.0 0.00 1.83 0.00 78 1012.4
20260502151932 17 41 1.6 8.0 0.00 1.85 0.00 79 1012.4
20260502151831 17 94 1.6 8.0 0.00 1.85 0.00 79 1012.5
20260502151731 17 73 1.6 8.0 0.00 1.85 0.00 79 1012.4
20260502151633 17 73 1.6 11.3 0.00 1.85 0.00 79 1012.4
20260502151531 17 66 3.2 11.3 0.00 1.85 0.00 79 1012.4
20260502151431 17 39 3.2 11.3 0.00 1.85 0.00 79 1012.4
20260502151332 17 41 3.2 11.3 0.00 1.85 0.00 79 1012.4
20260502151232 17 281 1.6 11.3 0.00 1.85 0.00 79 1012.4
20260502151133 17 58 1.6 11.3 0.00 1.85 0.00 79 1012.4
20260502151031 17 14 1.6 11.3 0.00 1.85 0.00 78 1012.5
20260502150931 17 16 1.6 11.3 0.00 1.85 0.00 78 1012.5
20260502150833 17 113 3.2 11.3 0.00 1.85 0.00 78 1012.5
20260502150731 17 93 3.2 11.3 0.00 1.85 0.00 80 1012.5
20260502150631 17 97 3.2 6.4 0.00 1.85 0.00 80 1012.5
20260502150532 17 90 3.2 6.4 0.00 1.88 0.00 80 1012.5
20260502150414 17 93 1.6 4.8 0.00 1.88 0.00 80 1012.5
20260502150314 17 79 1.6 4.8 0.00 1.88 0.00 81 1012.5
20260502150214 16 86 1.6 4.8 0.00 1.88 0.00 82 1012.6
20260502150113 16 90 1.6 4.8 0.00 1.88 0.00 82 1012.5
20260502140112 12 188 1.6 4.8 0.00 2.06 0.00 91 1012.1
20260502130730 10 120 0.0 0.0 0.00 2.46 0.00 90 1011.4
20260502130632 10 120 0.0 0.0 0.00 2.49 0.00 90 1011.4
20260502130529 10 120 0.0 0.0 0.00 2.49 0.00 90 1011.3
20260502130420 10 120 0.0 0.0 0.00 2.54 0.00 90 1011.4
20260502130310 10 120 0.0 0.0 0.00 2.54 0.00 90 1011.4
20260502130210 10 120 0.0 0.0 0.00 2.57 0.00 90 1011.4
20260502130111 10 120 0.0 0.0 0.00 2.59 0.00 90 1011.4
20260502123809 10 92 0.0 0.0 0.00 2.97 0.00 90 1011.0
20260502123708 10 92 0.0 0.0 0.00 3.02 0.00 90 1011.0
20260502123608 10 92 0.0 0.0 0.00 3.05 0.00 90 1011.1
20260502123507 10 92 0.0 0.0 0.00 3.05 0.00 90 1011.1
20260502123408 10 92 0.0 0.0 0.00 3.10 0.00 90 1011.1
20260502123308 10 92 0.0 0.0 0.00 3.10 0.00 90 1011.0
20260502123207 10 92 0.0 0.0 0.00 3.10 0.00 90 1011.0
20260502123110 10 92 0.0 0.0 0.00 3.12 0.00 90 1010.9
20260502123007 10 92 0.0 0.0 0.00 3.15 0.00 90 1010.9
20260502122909 10 92 0.0 0.0 0.00 3.15 0.00 90 1010.9
20260502122808 10 92 0.0 0.0 0.00 3.17 0.00 90 1010.9
20260502122708 10 92 0.0 0.0 0.00 3.17 0.00 90 1010.8
20260502122607 10 92 0.0 0.0 0.00 3.20 0.00 90 1010.9
20260502122507 10 92 0.0 0.0 0.00 3.20 0.00 90 1010.8
20260502122409 10 92 0.0 0.0 0.00 3.23 0.00 90 1010.8
20260502122309 10 92 0.0 0.0 0.00 3.25 0.00 90 1010.8
20260502122207 10 92 0.0 0.0 0.00 3.30 0.00 90 1010.8
20260502122108 10 92 0.0 0.0 0.00 3.30 0.00 90 1010.8
20260502122006 10 92 0.0 0.0 0.00 3.33 0.00 90 1010.8
20260502121908 10 92 0.0 0.0 0.00 3.35 0.00 90 1010.8
20260502121807 10 92 0.0 0.0 0.00 3.38 0.00 90 1010.8
20260502121708 10 92 0.0 0.0 0.00 3.40 0.00 90 1010.7
20260502121609 10 92 0.0 0.0 0.00 3.43 0.00 90 1010.7
20260502121508 10 92 0.0 0.0 0.00 3.48 0.00 90 1010.6
20260502121409 10 92 0.0 0.0 0.00 3.48 0.00 90 1010.7
20260502121309 10 92 0.0 0.0 0.00 3.56 0.00 90 1010.7
20260502121208 10 92 0.0 0.0 0.00 3.56 0.00 90 1010.7
20260502121107 10 92 0.0 0.0 0.00 3.58 0.00 90 1010.7
20260502121009 10 92 0.0 0.0 0.00 3.63 0.00 90 1010.6
20260502120907 10 92 0.0 0.0 0.00 3.63 0.00 90 1010.6
20260502120807 10 92 0.0 0.0 0.00 3.66 0.00 90 1010.7
20260502120708 10 92 0.0 0.0 0.00 3.66 0.00 90 1010.7
20260502120607 10 92 0.0 0.0 0.00 3.68 0.00 90 1010.6
20260502120509 10 92 0.0 0.0 0.00 3.68 0.00 90 1010.6
20260502120407 10 92 0.0 0.0 0.00 3.71 0.00 90 1010.6
20260502120309 10 92 0.0 0.0 0.00 3.73 0.00 90 1010.6
20260502120208 10 92 0.0 0.0 0.00 3.73 0.00 90 1010.6
20260502120108 10 92 0.0 0.0 0.00 3.73 0.00 90 1010.5
20260502115909 10 92 0.0 0.0 0.00 3.76 0.00 90 1010.6
20260502115808 10 92 0.0 0.0 0.00 3.78 0.00 90 1010.5
20260502115709 10 92 0.0 0.0 0.00 3.81 0.00 90 1010.5
20260502115607 10 92 0.0 0.0 0.00 3.81 0.00 90 1010.5
20260502115507 10 92 0.0 0.0 0.00 3.84 0.00 90 1010.5
20260502115408 10 92 0.0 0.0 0.00 3.84 0.00 90 1010.5
20260502115308 10 92 0.0 0.0 0.00 3.84 0.00 90 1010.4
20260502115207 10 92 0.0 0.0 0.00 3.84 0.00 90 1010.4
20260502115107 10 92 0.0 0.0 0.00 3.86 0.00 90 1010.4
20260502115009 10 92 0.0 0.0 0.00 3.86 0.00 90 1010.4
20260502114908 10 92 0.0 0.0 0.00 3.86 0.00 90 1010.4
20260502114807 10 92 0.0 0.0 0.00 3.89 0.00 90 1010.4
20260502114707 10 92 0.0 0.0 0.00 3.89 0.00 90 1010.3
20260502114607 10 92 0.0 0.0 0.00 3.89 0.00 90 1010.3
20260502114507 10 92 0.0 0.0 0.00 3.89 0.00 90 1010.3
20260502114408 10 92 0.0 0.0 0.00 3.91 0.00 90 1010.4
20260502114306 10 92 0.0 0.0 0.00 3.94 0.00 90 1010.3
20260502114207 10 92 0.0 0.0 0.00 3.96 0.00 90 1010.4
20260502114107 10 92 0.0 0.0 0.00 4.01 0.00 90 1010.4
20260502114007 10 92 0.0 0.0 0.00 4.06 0.00 90 1010.4
20260502113908 10 92 0.0 0.0 0.00 4.06 0.00 90 1010.3
20260502113807 10 92 0.0 0.0 0.00 4.11 0.00 90 1010.3
20260502113708 10 92 0.0 0.0 0.00 4.17 0.00 90 1010.3
20260502113607 10 92 0.0 0.0 0.00 4.17 0.00 90 1010.3
20260502113508 10 92 0.0 0.0 0.00 4.22 0.00 90 1010.3
20260502113406 10 92 0.0 0.0 0.00 4.24 0.00 90 1010.3
20260502113307 10 92 0.0 0.0 0.00 4.24 0.00 90 1010.3
20260502113208 10 92 0.0 0.0 0.00 4.27 0.00 90 1010.3
20260502113107 10 92 0.0 0.0 0.00 4.27 0.00 90 1010.2
20260502113007 10 92 0.0 0.0 0.00 4.27 0.00 90 1010.2
20260502112907 10 92 0.0 0.0 0.00 4.27 0.00 90 1010.1
20260502112808 10 92 0.0 0.0 0.00 4.29 0.00 90 1010.1
20260502112706 10 92 0.0 0.0 0.00 4.29 0.00 90 1010.1
20260502112607 10 92 0.0 0.0 0.00 4.32 0.00 90 1010.0
20260502112507 10 92 0.0 0.0 0.00 4.32 0.00 90 1010.0
20260502112407 10 92 0.0 0.0 0.00 4.34 0.00 90 1010.0
20260502112307 10 92 0.0 0.0 0.00 4.37 0.00 90 1010.0
20260502112206 10 92 0.0 0.0 0.00 4.37 0.00 90 1010.0
20260502112107 10 92 0.0 0.0 0.00 4.39 0.00 90 1010.0
20260502112006 10 92 0.0 0.0 0.00 4.39 0.00 90 1010.0
20260502111906 10 92 0.0 0.0 0.00 4.39 0.00 90 1010.0
20260502111806 10 92 0.0 0.0 0.00 4.42 0.00 90 1010.0
20260502111706 10 92 0.0 0.0 0.00 4.42 0.00 90 1010.0
20260502111606 10 92 0.0 0.0 0.00 4.42 0.00 90 1009.9
20260502111506 10 92 0.0 0.0 0.00 4.42 0.00 90 1009.9
20260502111408 10 92 0.0 0.0 0.00 4.42 0.00 90 1009.9
20260502111306 10 92 0.0 0.0 0.00 4.42 0.00 90 1009.9
20260502111206 10 92 0.0 0.0 0.00 4.45 0.00 90 1009.9
20260502111106 10 92 0.0 0.0 0.00 4.45 0.00 90 1009.8
20260502111006 10 92 0.0 0.0 0.00 4.47 0.00 90 1009.8
20260502110906 10 92 0.0 0.0 0.00 4.47 0.00 90 1009.8
20260502110807 10 92 0.0 0.0 0.00 4.47 0.00 90 1009.9
20260502110707 10 92 0.0 0.0 0.00 4.50 0.00 90 1009.9
20260502110607 10 92 0.0 0.0 0.00 4.50 0.00 90 1009.8
20260502110506 10 92 0.0 0.0 0.00 4.52 0.00 90 1009.8
20260502110408 10 92 0.0 0.0 0.00 4.52 0.00 90 1009.9
20260502110306 10 92 0.0 0.0 0.00 4.52 0.00 90 1009.7
20260502110206 10 92 0.0 0.0 0.00 4.55 0.00 90 1009.8
20260502110108 10 92 0.0 0.0 0.00 4.55 0.00 90 1009.8
20260502110007 10 92 0.0 0.0 0.00 4.55 0.00 90 1009.8
20260502105905 10 92 0.0 0.0 0.00 4.57 0.00 90 1009.8
20260502105806 10 92 0.0 0.0 0.00 4.57 0.00 90 1009.8
20260502105708 10 92 0.0 0.0 0.00 4.57 0.00 90 1009.7
20260502105607 10 92 0.0 0.0 0.00 4.57 0.00 90 1009.7
20260502105507 10 92 0.0 0.0 0.00 4.60 0.00 90 1009.7
20260502105406 10 92 0.0 0.0 0.00 4.60 0.00 90 1009.7
20260502105307 10 92 0.0 0.0 0.00 4.60 0.00 90 1009.7
20260502105206 10 92 0.0 0.0 0.00 4.62 0.00 90 1009.6
20260502105106 10 92 0.0 0.0 0.00 4.62 0.00 90 1009.6
20260502105006 10 92 0.0 0.0 0.00 4.67 0.00 90 1009.7
20260502104904 10 92 0.0 0.0 0.00 4.67 0.00 90 1009.7
20260502104803 10 92 0.0 0.0 0.00 4.67 0.00 90 1009.7
20260502104704 10 92 0.0 0.0 0.00 4.67 0.00 90 1009.7
20260502104604 10 92 0.0 0.0 0.00 4.67 0.00 90 1009.8
20260502104503 10 92 0.0 0.0 0.00 4.70 0.00 90 1009.8
20260502104403 10 92 0.0 0.0 0.00 4.70 0.00 90 1009.8
20260502104302 10 92 0.0 0.0 0.00 4.72 0.00 90 1009.7
20260502104202 10 92 0.0 0.0 0.00 4.72 0.00 90 1009.7
20260502104102 10 92 0.0 0.0 0.00 4.75 0.00 90 1009.7
20260502104002 10 92 0.0 0.0 0.00 4.78 0.00 90 1009.7
20260502103902 11 92 0.0 0.0 0.00 4.78 0.00 90 1009.7
20260502103801 10 92 0.0 0.0 0.00 4.80 0.00 90 1009.7
20260502103702 11 92 0.0 0.0 0.00 4.80 0.00 90 1009.7
20260502103557 11 140 0.0 0.0 0.00 4.83 0.00 90 1009.7
20260502103500 11 140 0.0 0.0 0.00 4.83 0.00 90 1009.7
20260502103356 11 140 0.0 0.0 0.00 4.83 0.00 90 1009.7
20260502103252 11 140 0.0 0.0 0.00 4.85 0.00 90 1009.7
20260502103152 11 140 0.0 0.0 0.00 4.85 0.00 90 1009.7
20260502103047 11 140 0.0 0.0 0.00 4.85 0.00 90 1009.6
20260502102945 11 140 0.0 0.0 0.00 4.88 0.00 90 1009.6
20260502102845 11 140 0.0 0.0 0.00 4.88 0.00 90 1009.6
20260502102741 11 140 0.0 0.0 0.00 4.88 0.00 90 1009.6
20260502102640 11 140 0.0 0.0 0.00 4.90 0.00 90 1009.6
20260502102531 11 140 0.0 0.0 0.00 4.90 0.00 90 1009.6
20260502102432 11 140 0.0 0.0 0.00 4.90 0.00 90 1009.6
20260502102331 11 140 0.0 0.0 0.00 4.90 0.00 90 1009.5
20260502102230 11 140 0.0 0.0 0.00 4.90 0.00 90 1009.6
20260502102132 11 140 0.0 0.0 0.00 4.93 0.00 90 1009.6
20260502102032 11 140 0.0 0.0 0.00 4.93 0.00 90 1009.6
20260502101933 11 140 0.0 0.0 0.00 4.93 0.00 90 1009.5
20260502101834 11 140 0.0 0.0 0.00 4.93 0.00 90 1009.5
20260502101733 11 140 0.0 0.0 0.00 4.93 0.00 90 1009.4
20260502101631 11 140 0.0 0.0 0.00 4.93 0.00 90 1009.5
20260502101533 11 140 0.0 0.0 0.00 4.93 0.00 90 1009.4
20260502101432 11 141 0.0 0.0 0.00 4.93 0.00 90 1009.4
20260502101333 11 141 0.0 0.0 0.00 4.93 0.00 90 1009.4
20260502101231 11 141 0.0 0.0 0.00 4.93 0.00 90 1009.3
20260502101132 11 125 0.0 0.0 0.00 4.93 0.00 90 1009.4
20260502101032 11 125 0.0 0.0 0.00 4.93 0.00 90 1009.4
20260502100933 11 107 0.0 0.0 0.00 4.93 0.00 90 1009.4
20260502100832 11 107 0.0 0.0 0.00 4.93 0.00 90 1009.4
20260502100733 11 107 0.0 0.0 0.00 4.93 0.00 90 1009.4
20260502100631 11 107 0.0 0.0 0.00 4.93 0.00 90 1009.3
20260502100528 11 107 0.0 0.0 0.00 4.93 0.00 90 1009.4
20260502100420 11 107 0.0 0.0 0.00 4.93 0.00 90 1009.3
20260502100316 11 107 0.0 0.0 0.00 4.93 0.00 90 1009.2
20260502100216 11 107 0.0 0.0 0.00 4.93 0.00 90 1009.3
20260502100110 11 107 0.0 0.0 0.00 4.93 0.00 90 1009.2
20260502091506 11 131 0.0 1.6 0.00 5.28 0.00 90 1008.6
20260502091404 11 131 0.0 1.6 0.00 5.31 0.00 90 1008.6
20260502091303 11 131 0.0 1.6 0.00 5.31 0.00 90 1008.5
20260502091203 11 131 0.0 1.6 0.00 5.31 0.00 90 1008.5
20260502091104 11 131 0.0 1.6 0.00 5.33 0.00 90 1008.5
20260502091004 11 131 0.0 1.6 0.00 5.33 0.00 90 1008.4
20260502090903 11 131 0.0 1.6 0.00 5.33 0.00 90 1008.5
20260502090803 11 131 0.0 1.6 0.00 5.33 0.00 90 1008.4
20260502090703 11 131 0.0 1.6 0.00 5.36 0.00 90 1008.4
20260502090603 11 131 0.0 1.6 0.00 5.36 0.00 90 1008.4
20260502090503 11 131 0.0 1.6 0.00 5.36 0.00 90 1008.4
20260502090404 11 131 0.0 1.6 0.00 5.36 0.00 90 1008.3
20260502090304 11 135 0.0 1.6 0.00 5.36 0.00 90 1008.3
20260502090203 11 135 0.0 1.6 0.00 5.36 0.00 90 1008.2
20260502071503 12 63 0.0 1.6 0.00 5.99 0.00 90 1008.0
20260502071403 12 63 0.0 1.6 0.00 5.99 0.00 90 1007.9
20260502071301 12 63 0.0 1.6 0.00 5.99 0.00 90 1007.9
20260502071202 12 63 0.0 1.6 0.00 5.99 0.00 90 1008.0
20260502071102 12 63 0.0 1.6 0.00 5.99 0.00 90 1007.9
20260502071004 12 63 0.0 1.6 0.00 5.99 0.00 90 1007.9
20260502070904 12 63 0.0 1.6 0.00 5.99 0.00 90 1007.9
20260502070803 12 63 0.0 1.6 0.00 5.99 0.00 90 1008.0
20260502070702 12 63 0.0 3.2 0.00 5.99 0.00 90 1007.9
20260502070602 12 63 0.0 3.2 0.00 5.99 0.00 90 1008.0
20260502070502 12 63 0.0 3.2 0.00 5.99 0.00 90 1008.0
20260502070402 12 63 0.0 3.2 0.00 5.99 0.00 90 1008.1
20260502070302 12 63 0.0 3.2 0.00 5.99 0.00 90 1008.0
20260502070203 12 63 0.0 3.2 0.00 5.99 0.00 90 1008.1
20260502070004 12 63 0.0 3.2 0.00 5.99 0.00 90 1008.1
20260502065902 12 63 0.0 3.2 0.00 5.99 0.00 90 1008.1
20260502065802 12 63 0.0 3.2 0.00 5.99 0.00 90 1008.1
20260502065702 12 59 0.0 1.6 0.00 5.99 0.00 90 1008.1
20260502065602 12 59 0.0 3.2 0.00 5.99 0.00 90 1008.1
20260502065502 12 59 0.0 3.2 0.00 5.99 0.00 90 1008.1
20260502065403 12 59 0.0 3.2 0.00 5.99 0.00 90 1008.2
20260502065306 12 61 0.0 3.2 0.00 5.99 0.00 90 1008.1
20260502065203 12 61 1.6 3.2 0.00 5.99 0.00 90 1008.1
20260502065103 12 56 0.0 3.2 0.00 5.99 0.00 90 1008.1
20260502065004 12 55 0.0 3.2 0.00 5.99 0.00 90 1008.1
20260502064859 12 55 1.6 3.2 0.00 5.99 0.00 90 1008.2
20260502064758 12 55 1.6 3.2 0.00 5.99 0.00 90 1008.1
20260502064656 12 55 0.0 3.2 0.00 5.99 0.00 90 1008.1
20260502064557 12 56 0.0 3.2 0.00 5.99 0.00 90 1008.1
20260502064457 12 56 0.0 3.2 0.00 5.99 0.00 90 1008.1
20260502064356 12 56 0.0 3.2 0.00 5.99 0.00 90 1008.1
20260502064256 12 56 1.6 3.2 0.00 5.99 0.00 90 1008.0
20260502064157 12 75 1.6 3.2 0.00 5.99 0.00 90 1008.1
20260502064058 12 72 1.6 3.2 0.00 5.99 0.00 90 1008.1
20260502063958 12 83 1.6 3.2 0.00 5.99 0.00 90 1008.1
20260502063857 12 86 0.0 3.2 0.00 5.99 0.00 90 1008.1
20260502063757 12 86 0.0 3.2 0.00 5.99 0.00 90 1008.1
20260502063656 12 86 0.0 3.2 0.00 5.99 0.00 90 1008.1
20260502063558 12 86 0.0 3.2 0.00 5.99 0.00 90 1008.0
20260502063457 12 86 0.0 3.2 0.00 5.99 0.00 90 1008.0
20260502063356 12 86 1.6 3.2 0.00 5.99 0.00 90 1008.1
20260502063257 12 86 1.6 3.2 0.00 5.99 0.00 90 1008.0
20260502063158 12 341 0.0 3.2 0.00 5.99 0.00 90 1007.9
20260502063056 12 312 0.0 3.2 0.00 5.99 0.00 90 1007.9
20260502062956 12 320 0.0 3.2 0.00 5.99 0.00 90 1007.8
20260502062856 12 320 0.0 3.2 0.00 5.99 0.00 90 1007.8
20260502062756 12 320 0.0 3.2 0.00 5.99 0.00 90 1007.8
20260502062658 12 320 0.0 3.2 0.00 5.99 0.00 90 1007.8
20260502062558 12 320 1.6 3.2 0.00 5.99 0.00 90 1007.8
20260502062458 12 317 1.6 3.2 0.00 5.99 0.00 90 1007.8
20260502062357 12 190 0.0 3.2 0.00 5.99 0.00 90 1007.7
20260502062256 12 192 1.6 3.2 0.00 5.99 0.00 90 1007.7
20260502062158 12 192 1.6 3.2 0.00 5.99 0.00 90 1007.7
20260502062057 12 124 0.0 1.6 0.00 5.99 0.00 90 1007.8
20260502061956 12 124 0.0 3.2 0.00 5.99 0.00 90 1007.7
20260502061856 12 124 0.0 3.2 0.00 5.99 0.00 90 1007.8
20260502061758 12 124 0.0 3.2 0.00 5.99 0.00 90 1007.8
20260502061656 12 124 0.0 4.8 0.00 6.02 0.00 90 1007.8
20260502061556 12 124 0.0 4.8 0.00 6.02 0.00 90 1007.7
20260502061455 12 124 1.6 4.8 0.00 6.02 0.00 90 1007.8
20260502061351 12 124 1.6 4.8 0.00 6.02 0.00 90 1007.8
20260502061248 12 124 1.6 4.8 0.00 6.05 0.00 90 1007.8
20260502061149 12 135 1.6 4.8 0.00 6.05 0.00 90 1007.8
20260502061044 12 135 1.6 4.8 0.00 6.05 0.00 90 1007.8
20260502060941 12 135 0.0 4.8 0.00 6.05 0.00 90 1007.8
20260502060838 12 135 1.6 4.8 0.00 6.05 0.00 90 1007.8
20260502060733 12 135 3.2 4.8 0.00 6.05 0.00 90 1007.8
20260502060632 12 120 1.6 4.8 0.00 6.05 0.00 90 1007.8
20260502060531 12 87 1.6 4.8 0.00 6.05 0.00 90 1007.8
20260502060433 12 300 1.6 4.8 0.00 6.05 0.00 90 1007.8
20260502060314 12 300 1.6 4.8 0.00 6.05 0.00 90 1007.8
20260502060207 12 51 1.6 4.8 0.00 6.05 0.00 90 1007.8
20260502060105 12 59 1.6 4.8 0.00 6.05 0.00 90 1007.9
20260502060004 12 37 1.6 4.8 0.00 6.05 0.00 90 1007.8
20260502055902 12 62 1.6 4.8 0.00 6.05 0.00 90 1007.9
20260502055802 12 159 1.6 3.2 0.00 6.05 0.00 90 1007.8
20260502055702 12 159 1.6 4.8 0.00 6.05 0.00 90 1007.9
20260502055602 12 159 1.6 4.8 0.00 6.05 0.00 90 1007.8
20260502055503 12 159 1.6 4.8 0.00 6.05 0.00 90 1007.8
20260502055402 12 159 0.0 4.8 0.00 6.05 0.00 90 1007.8
20260502055305 12 178 0.0 4.8 0.00 6.05 0.00 90 1007.8
20260502055202 12 178 0.0 4.8 0.00 6.05 0.00 90 1007.8
20260502055102 12 178 0.0 4.8 0.00 6.05 0.00 90 1007.8
20260502055004 12 178 0.0 4.8 0.00 6.05 0.00 90 1007.8
20260502054903 12 178 1.6 4.8 0.00 6.05 0.00 90 1007.9
20260502054802 12 141 0.0 4.8 0.00 6.05 0.00 90 1007.9
20260502054703 12 128 0.0 3.2 0.00 6.05 0.00 90 1007.9
20260502054603 12 128 0.0 3.2 0.00 6.05 0.00 90 1007.9
20260502054503 12 75 1.6 3.2 0.00 6.05 0.00 90 1007.9
20260502054402 12 76 1.6 3.2 0.00 6.05 0.00 90 1008.0
20260502054302 12 76 0.0 3.2 0.00 6.05 0.00 90 1008.0
20260502054201 12 340 0.0 3.2 0.00 6.05 0.00 90 1008.0
20260502054103 12 340 1.6 4.8 0.00 6.05 0.00 90 1008.0
20260502054002 12 340 1.6 4.8 0.00 6.05 0.00 90 1008.0
20260502053903 12 340 0.0 4.8 0.00 6.05 0.00 90 1008.0
20260502053804 12 340 1.6 4.8 0.00 6.05 0.00 90 1008.0
20260502053702 12 333 0.0 4.8 0.00 6.05 0.00 90 1008.0
20260502053603 12 337 0.0 4.8 0.00 6.05 0.00 90 1007.9
20260502053503 12 337 0.0 6.4 0.00 6.05 0.00 90 1007.9
20260502053402 12 337 1.6 6.4 0.00 6.05 0.00 90 1007.9
20260502053301 12 337 1.6 6.4 0.00 6.05 0.00 90 1007.9
20260502053203 12 353 1.6 6.4 0.00 6.05 0.00 90 1007.9
20260502053102 12 85 1.6 6.4 0.00 6.05 0.00 90 1007.9
20260502053004 12 85 0.0 6.4 0.00 6.05 0.00 90 1007.9
20260502052902 12 86 0.0 6.4 0.00 6.05 0.00 90 1007.8
20260502052802 12 86 1.6 6.4 0.00 6.05 0.00 90 1007.9
20260502052703 12 86 3.2 6.4 0.00 6.05 0.00 90 1007.9
20260502052602 12 90 3.2 6.4 0.00 6.05 0.00 90 1007.9
20260502052502 12 100 1.6 6.4 0.00 6.05 0.00 90 1007.9
20260502052402 12 80 1.6 6.4 0.00 6.05 0.00 90 1007.8
20260502052305 12 254 1.6 6.4 0.00 6.05 0.00 90 1007.9
20260502052202 12 83 3.2 6.4 0.00 6.05 0.00 90 1007.8
20260502052102 12 54 3.2 6.4 0.00 6.05 0.00 90 1007.8
20260502052003 12 76 3.2 6.4 0.00 6.05 0.00 90 1007.9
20260502051902 12 96 1.6 6.4 0.00 6.05 0.00 90 1007.8
20260502051804 12 80 1.6 6.4 0.00 6.05 0.00 90 1007.7
20260502051702 12 80 3.2 6.4 0.00 6.05 0.00 90 1007.8
20260502051601 12 80 3.2 6.4 0.00 6.05 0.00 90 1007.8
20260502051503 12 97 3.2 6.4 0.00 6.05 0.00 90 1007.8
20260502051402 12 116 1.6 6.4 0.00 6.05 0.00 90 1007.8
20260502051302 12 125 1.6 6.4 0.00 6.05 0.00 90 1007.8
20260502051203 12 54 1.6 6.4 0.00 6.05 0.00 90 1007.9
20260502051102 12 0 1.6 8.0 0.00 6.05 0.00 90 1007.7
20260502051004 12 51 1.6 8.0 0.00 6.05 0.00 90 1007.8
20260502050903 12 97 1.6 8.0 0.00 6.05 0.00 90 1007.7
20260502050802 12 97 1.6 8.0 0.00 6.05 0.00 90 1007.7
20260502050703 12 45 3.2 8.0 0.00 6.05 0.00 90 1007.7
20260502050602 12 44 3.2 8.0 0.00 6.05 0.00 90 1007.7
20260502050503 12 93 1.6 8.0 0.00 6.05 0.00 90 1007.7
20260502050403 12 162 1.6 8.0 0.00 6.05 0.00 90 1007.7
20260502050302 12 357 3.2 8.0 0.00 6.05 0.00 90 1007.8
20260502050203 12 100 3.2 8.0 0.00 6.05 0.00 90 1007.7
20260502050058 12 125 1.6 6.4 0.00 6.05 0.00 90 1007.8
20260502045957 12 125 3.2 6.4 0.00 6.05 6.05 90 1007.7
20260502045856 12 69 1.6 6.4 0.00 6.05 6.05 90 1007.8
20260502045757 12 116 1.6 6.4 0.00 6.05 6.05 90 1007.7
20260502045655 12 0 0.0 4.8 0.00 6.05 6.05 90 1007.7
20260502045558 12 0 1.6 4.8 0.00 6.05 6.05 90 1007.8
20260502045454 12 0 1.6 4.8 0.00 6.05 6.05 90 1007.7
20260502045354 12 75 1.6 4.8 0.00 6.05 6.05 90 1007.7
20260502045255 12 58 3.2 4.8 0.00 6.05 6.05 90 1007.7
20260502045157 12 238 1.6 4.8 0.00 6.05 6.05 90 1007.7
20260502045056 12 343 1.6 4.8 0.00 6.05 6.05 90 1007.8
20260502044956 12 343 1.6 8.0 0.00 6.05 6.05 90 1007.7
20260502044855 12 329 0.0 8.0 0.00 6.05 6.05 90 1007.8
20260502044755 12 195 1.6 8.0 0.00 6.05 6.05 90 1007.7
20260502044654 12 107 1.6 8.0 0.00 6.05 6.05 90 1007.7
20260502044554 12 107 3.2 8.0 0.00 6.05 6.05 90 1007.8
20260502044455 12 113 3.2 8.0 0.00 6.05 6.05 90 1007.8
20260502044354 12 113 3.2 8.0 0.00 6.05 6.05 90 1007.7
20260502044254 12 188 3.2 8.0 0.00 6.05 6.05 90 1007.8
20260502044156 12 144 1.6 8.0 0.00 6.05 6.05 90 1007.7
20260502044055 12 207 1.6 8.0 0.00 6.05 6.05 90 1007.7
20260502043954 12 3 1.6 6.4 0.00 6.05 6.05 90 1007.7
20260502043854 12 140 1.6 6.4 0.00 6.05 6.05 90 1007.7
20260502043755 12 18 1.6 6.4 0.00 6.05 6.05 90 1007.8
20260502043654 12 17 1.6 6.4 0.00 6.05 6.05 90 1007.7
20260502043554 12 21 1.6 6.4 0.00 6.05 6.05 90 1007.7
20260502043454 12 128 1.6 6.4 0.00 6.05 6.05 90 1007.7
20260502043354 12 113 1.6 6.4 0.00 6.05 6.05 90 1007.7
20260502043255 12 113 3.2 6.4 0.00 6.05 6.05 90 1007.7
20260502043155 12 113 4.8 6.4 0.00 6.05 6.05 90 1007.7
20260502043053 12 94 3.2 6.4 0.00 6.05 6.05 90 1007.7
20260502042955 12 127 3.2 6.4 0.00 6.05 6.05 90 1007.7
20260502042855 12 130 3.2 6.4 0.00 6.05 6.05 90 1007.6
20260502042754 12 179 3.2 4.8 0.00 6.05 6.05 90 1007.7
20260502042655 12 35 1.6 4.8 0.00 6.05 6.05 90 1007.6
20260502042555 12 73 1.6 4.8 0.00 6.05 6.05 90 1007.6
20260502042453 12 103 1.6 4.8 0.00 6.05 6.05 90 1007.6
20260502042355 12 106 1.6 4.8 0.00 6.05 6.05 90 1007.6
20260502042254 12 62 1.6 4.8 0.00 6.05 6.05 90 1007.6
20260502042153 12 90 1.6 8.0 0.00 6.05 6.05 90 1007.6
20260502042055 12 54 1.6 8.0 0.00 6.05 6.05 90 1007.5
20260502041953 12 54 1.6 8.0 0.00 6.05 6.05 90 1007.5
20260502041853 12 61 0.0 8.0 0.00 6.05 6.05 90 1007.5
20260502041755 12 28 1.6 8.0 0.00 6.05 6.05 90 1007.5
20260502041654 12 28 1.6 8.0 0.00 6.05 6.05 90 1007.5
20260502041554 12 78 1.6 8.0 0.00 6.05 6.05 90 1007.5
20260502041455 12 78 3.2 8.0 0.00 6.05 6.05 90 1007.5
20260502041354 12 69 3.2 8.0 0.00 6.05 6.05 90 1007.5
20260502041254 12 14 3.2 8.0 0.00 6.05 6.05 90 1007.5
20260502041153 12 78 1.6 4.8 0.00 6.05 6.05 90 1007.5
20260502041055 12 75 1.6 4.8 0.00 6.05 6.05 90 1007.4
20260502040954 12 75 1.6 4.8 0.00 6.05 6.05 90 1007.5
20260502040853 12 66 1.6 4.8 0.00 6.05 6.05 90 1007.5
20260502040754 12 96 1.6 4.8 0.00 6.05 6.05 90 1007.5
20260502040655 12 96 1.6 4.8 0.00 6.05 6.05 90 1007.6
20260502040554 12 92 1.6 3.2 0.00 6.05 6.05 90 1007.6
20260502040453 12 92 1.6 3.2 0.00 6.05 6.05 90 1007.6
20260502040355 12 100 1.6 4.8 0.00 6.05 6.05 90 1007.6
20260502040254 12 100 0.0 6.4 0.00 6.05 6.05 90 1007.6
20260502040153 12 0 0.0 6.4 0.00 6.05 6.05 90 1007.6
20260502040053 12 0 0.0 6.4 0.00 6.05 6.05 90 1007.6
20260502035954 12 0 0.0 6.4 0.00 6.05 6.05 90 1007.6
20260502035854 12 0 1.6 6.4 0.00 6.05 6.05 90 1007.5
20260502035755 12 0 1.6 6.4 0.00 6.05 6.05 90 1007.5
20260502035653 12 0 1.6 6.4 0.00 6.05 6.05 90 1007.6
20260502035553 12 0 3.2 6.4 0.00 6.05 6.05 90 1007.6
20260502035454 12 32 4.8 6.4 0.00 6.05 6.05 90 1007.7
20260502035354 12 0 3.2 6.4 0.00 6.05 6.05 90 1007.7
20260502035253 12 141 3.2 6.4 0.00 6.05 6.05 90 1007.7
20260502035153 12 25 3.2 9.7 0.00 6.05 6.05 90 1007.7
20260502035053 12 30 3.2 9.7 0.00 6.05 6.05 90 1007.7
20260502034953 12 27 1.6 9.7 0.00 6.05 6.05 90 1007.6
20260502034853 12 209 1.6 9.7 0.00 6.05 6.05 90 1007.7
20260502034755 12 213 3.2 9.7 0.00 6.05 6.05 90 1007.7
20260502034654 12 86 1.6 9.7 0.00 6.05 6.05 90 1007.6
20260502034552 12 175 1.6 9.7 0.00 6.05 6.05 90 1007.7
20260502034453 12 18 3.2 9.7 0.00 6.05 6.05 90 1007.6
20260502034352 12 56 3.2 9.7 0.00 6.05 6.05 90 1007.7
20260502034254 12 66 1.6 9.7 0.00 6.05 6.05 90 1007.7
20260502034153 12 134 1.6 6.4 0.00 6.05 6.05 90 1007.7
20260502034053 12 134 1.6 6.4 0.00 6.05 6.05 90 1007.6
20260502033952 12 134 3.2 6.4 0.00 6.05 6.05 90 1007.6
20260502033853 12 93 3.2 6.4 0.00 6.05 6.05 90 1007.7
20260502033752 12 78 3.2 6.4 0.00 6.05 6.05 90 1007.7
20260502033653 12 262 1.6 6.4 0.00 6.05 6.05 90 1007.7
20260502033554 12 21 1.6 6.4 0.00 6.05 6.05 90 1007.7
20260502033452 12 25 3.2 6.4 0.00 6.05 6.05 90 1007.7
20260502033354 12 124 3.2 6.4 0.00 6.05 6.05 90 1007.6
20260502033253 12 0 3.2 6.4 0.00 6.05 6.05 90 1007.6
20260502033152 12 158 1.6 6.4 0.00 6.05 6.05 90 1007.6
20260502033054 12 13 1.6 11.3 0.00 6.05 6.05 90 1007.7
20260502032952 12 13 3.2 11.3 0.00 6.05 6.05 90 1007.7
20260502032852 13 175 1.6 11.3 0.00 6.05 6.05 90 1007.6
20260502032752 13 179 1.6 11.3 0.00 6.05 6.05 90 1007.6
20260502032653 13 130 1.6 11.3 0.00 6.05 6.05 90 1007.6
20260502032553 13 71 1.6 11.3 0.00 6.05 6.05 90 1007.6
20260502032453 13 87 3.2 11.3 0.00 6.05 6.05 90 1007.6
20260502032352 13 104 3.2 11.3 0.00 6.05 6.05 90 1007.6
20260502032300 13 65 3.2 11.3 0.00 6.05 6.05 90 1007.6
20260502032155 13 62 3.2 11.3 0.00 6.05 6.05 90 1007.6
20260502032055 13 65 0.0 6.4 0.00 6.05 6.05 90 1007.6
20260502031952 13 92 1.6 6.4 0.00 6.05 6.05 90 1007.6
20260502031853 13 92 3.2 6.4 0.00 6.05 6.05 90 1007.5
20260502031752 13 61 3.2 6.4 0.00 6.05 6.05 90 1007.5
20260502031652 13 102 3.2 6.4 0.00 6.05 6.05 90 1007.6
20260502031553 13 109 3.2 6.4 0.00 6.05 6.05 90 1007.6
20260502031453 13 141 1.6 6.4 0.00 6.05 6.05 90 1007.5
20260502031352 13 56 0.0 6.4 0.00 6.05 6.05 90 1007.5
20260502031252 13 55 0.0 6.4 0.00 6.05 6.05 90 1007.5
20260502031153 13 55 0.0 6.4 0.00 6.05 6.05 90 1007.4
20260502031053 13 55 0.0 6.4 0.00 6.05 6.05 90 1007.3
20260502030952 13 55 0.0 6.4 0.00 6.05 6.05 90 1007.4
20260502030853 13 55 1.6 6.4 0.00 6.05 6.05 90 1007.3
20260502030753 13 55 1.6 6.4 0.00 6.05 6.05 90 1007.3
20260502030652 13 44 1.6 6.4 0.00 6.05 6.05 90 1007.3
20260502030552 13 113 0.0 6.4 0.00 6.05 6.05 90 1007.3
20260502030452 13 110 1.6 6.4 0.00 6.05 6.05 90 1007.3
20260502030351 13 110 3.2 6.4 0.00 6.05 6.05 90 1007.3
20260502030253 13 102 3.2 6.4 0.00 6.05 6.05 90 1007.2
20260502030151 13 113 1.6 6.4 0.00 6.05 6.05 90 1007.2
20260502030052 13 79 0.0 6.4 0.00 6.05 6.05 90 1007.2
20260502025952 13 90 0.0 6.4 0.00 6.05 6.05 90 1007.2
20260502025851 13 90 0.0 6.4 0.00 6.05 6.05 90 1007.2
20260502025753 13 90 0.0 6.4 0.00 6.05 6.05 90 1007.1
20260502025652 13 92 3.2 6.4 0.00 6.05 6.05 90 1007.1
20260502025552 13 92 1.6 6.4 0.00 6.05 6.05 90 1007.1
20260502025451 13 34 0.0 3.2 0.00 6.05 6.05 90 1007.0
20260502025353 13 34 1.6 3.2 0.00 6.05 6.05 90 1007.0
20260502025251 13 31 1.6 3.2 0.00 6.05 6.05 90 1007.0
20260502025154 13 69 1.6 3.2 0.00 6.05 6.05 90 1006.9
20260502025053 13 125 1.6 3.2 0.00 6.05 6.05 90 1006.9
20260502024953 13 25 1.6 9.7 0.00 6.05 6.05 90 1006.9
20260502024852 13 85 1.6 9.7 0.00 6.05 6.05 90 1006.8
20260502024752 13 80 1.6 9.7 0.00 6.05 6.05 90 1006.9
20260502024652 13 80 1.6 9.7 0.00 6.05 6.05 90 1006.8
20260502024552 13 72 0.0 9.7 0.00 6.05 6.05 90 1006.8
20260502024453 13 73 0.0 9.7 0.00 6.05 6.05 90 1006.8
20260502024351 13 73 0.0 9.7 0.00 6.05 6.05 90 1006.8
20260502024253 13 73 1.6 9.7 0.00 6.05 6.05 90 1006.8
20260502024151 13 107 3.2 9.7 0.00 6.05 6.05 90 1006.7
20260502024051 13 109 3.2 9.7 0.00 6.05 6.05 90 1006.6
20260502023953 13 93 0.0 4.8 0.00 6.05 6.05 90 1006.6
20260502023853 12 96 0.0 4.8 0.00 6.05 6.05 90 1006.6
20260502023752 12 96 0.0 4.8 0.00 6.05 6.05 90 1006.5
20260502023653 12 96 1.6 4.8 0.00 6.05 6.05 90 1006.7
20260502023551 12 96 1.6 4.8 0.00 6.05 6.05 90 1006.6
20260502023452 12 38 1.6 4.8 0.00 6.05 6.05 90 1006.6
20260502023350 13 38 1.6 4.8 0.00 6.05 6.05 90 1006.5
20260502023251 12 38 1.6 4.8 0.00 6.05 6.05 90 1006.4
20260502023151 13 38 3.2 4.8 0.00 6.05 6.05 90 1006.4
20260502023052 13 125 1.6 3.2 0.00 6.05 6.05 90 1006.3
20260502022951 13 125 1.6 3.2 0.00 6.05 6.05 90 1006.3
20260502022853 12 63 1.6 4.8 0.00 6.05 6.05 90 1006.2
20260502022751 13 0 0.0 4.8 0.00 6.05 6.05 90 1006.2
20260502022652 13 0 1.6 4.8 0.00 6.05 6.05 90 1006.1
20260502022553 13 0 1.6 4.8 0.00 6.05 6.05 90 1006.0
20260502022453 13 3 0.0 4.8 0.00 6.05 6.05 90 1005.9
20260502022352 13 10 1.6 4.8 0.00 6.05 6.05 90 1005.8
20260502022252 13 10 1.6 4.8 0.00 6.05 6.05 90 1005.8
20260502022151 13 10 1.6 4.8 0.00 6.05 6.05 90 1005.8
20260502022051 13 1 1.6 4.8 0.00 6.05 6.05 90 1005.7
20260502021950 13 10 1.6 4.8 0.00 6.05 6.05 90 1005.8
20260502021851 13 61 1.6 3.2 0.00 6.05 6.05 90 1005.8
20260502021751 13 51 1.6 3.2 0.00 6.05 6.05 90 1005.7
20260502021651 13 28 0.0 3.2 0.00 6.05 6.05 90 1005.7
20260502021552 13 28 0.0 4.8 0.00 6.05 6.05 90 1005.7
20260502021451 13 28 0.0 4.8 0.03 6.05 6.05 90 1005.8
20260502021350 13 27 0.0 4.8 0.03 6.05 6.05 90 1005.7
20260502021251 13 27 0.0 4.8 0.03 6.05 6.05 90 1005.8
20260502021150 13 27 1.6 4.8 0.03 6.05 6.05 90 1005.7
20260502021050 13 30 1.6 4.8 0.03 6.05 6.05 90 1005.7
20260502020952 13 52 0.0 4.8 0.03 6.05 6.05 90 1005.7
20260502020850 13 52 1.6 4.8 0.03 6.05 6.05 90 1005.8
20260502020752 13 52 1.6 4.8 0.03 6.05 6.05 90 1005.8
20260502020652 13 133 1.6 4.8 0.03 6.05 6.05 90 1005.8
20260502020551 13 92 1.6 4.8 0.03 6.05 6.05 90 1005.8
20260502020450 13 92 1.6 4.8 0.03 6.05 6.05 90 1005.8
20260502020350 13 92 1.6 4.8 0.03 6.05 6.05 90 1005.8
20260502020253 13 85 1.6 4.8 0.03 6.05 6.05 90 1005.8
20260502020151 13 327 1.6 4.8 0.03 6.05 6.05 90 1005.8
20260502020050 13 117 1.6 4.8 0.05 6.05 6.05 90 1005.7
20260502015952 13 145 1.6 4.8 0.05 5.99 5.94 90 1005.8
20260502015850 13 78 1.6 4.8 0.05 5.99 5.94 90 1005.8
20260502015751 13 151 3.2 4.8 0.05 5.99 5.94 90 1005.8
20260502015649 13 151 3.2 4.8 0.05 5.99 5.94 90 1005.9
20260502015545 13 51 1.6 4.8 0.05 5.99 5.94 90 1005.8
20260502015436 13 178 1.6 4.8 0.05 5.99 5.94 90 1005.8
20260502015333 13 178 0.0 8.0 0.05 5.99 5.94 90 1005.8
20260502015231 13 178 1.6 8.0 0.05 5.99 5.94 90 1005.8
20260502015132 13 178 1.6 8.0 0.05 5.99 5.94 90 1005.8
20260502015031 13 178 1.6 8.0 0.05 5.99 5.94 90 1005.8
20260502014931 13 178 1.6 8.0 0.05 5.99 5.94 90 1005.8
20260502014832 13 178 1.6 8.0 0.05 5.99 5.94 90 1005.7
20260502014732 13 302 1.6 8.0 0.05 5.99 5.94 90 1005.8
20260502014636 13 302 3.2 8.0 0.05 5.99 5.94 90 1005.7
20260502014532 13 80 3.2 8.0 0.05 5.99 5.94 90 1005.7
20260502014430 13 82 1.6 4.8 0.05 5.99 5.94 90 1005.7
20260502014332 13 312 3.2 4.8 0.05 5.99 5.94 90 1005.6
20260502014233 13 305 3.2 4.8 0.05 5.99 5.94 90 1005.6
20260502014131 13 6 1.6 4.8 0.05 5.99 5.94 90 1005.6
20260502014031 13 259 1.6 4.8 0.05 5.99 5.94 90 1005.6
20260502013931 13 281 1.6 4.8 0.05 5.99 5.94 90 1005.5
20260502013832 13 180 1.6 4.8 0.05 5.99 5.94 90 1005.6
20260502013722 13 180 1.6 4.8 0.05 5.99 5.94 90 1005.6
20260502013619 13 179 1.6 6.4 0.05 5.99 5.94 90 1005.5
20260502013517 13 75 1.6 6.4 0.05 5.99 5.94 90 1005.5
20260502013412 13 133 1.6 6.4 0.05 5.99 5.94 90 1005.5
20260502013309 13 134 3.2 6.4 0.05 5.99 5.94 90 1005.6
20260502013204 13 138 3.2 8.0 0.08 5.99 5.94 90 1005.4
20260502013103 13 134 3.2 8.0 0.08 5.99 5.94 90 1005.5
20260502013006 13 114 1.6 8.0 0.08 5.99 5.94 90 1005.4
20260502012902 13 130 1.6 8.0 0.08 5.99 5.94 90 1005.4
20260502012802 13 133 3.2 8.0 0.08 5.99 5.94 90 1005.3
20260502012704 13 45 3.2 8.0 0.08 5.99 5.94 90 1005.3
20260502012603 13 80 1.6 8.0 0.08 5.99 5.94 90 1005.3
20260502012503 13 76 1.6 8.0 0.08 5.99 5.94 90 1005.2
20260502012402 13 73 3.2 8.0 0.08 5.99 5.94 90 1005.3
20260502012306 13 71 3.2 8.0 0.10 5.99 5.94 90 1005.2
20260502012205 13 13 3.2 8.0 0.10 5.99 5.94 90 1005.2
20260502012103 13 4 3.2 8.0 0.10 5.99 5.94 90 1005.3
20260502012002 13 252 1.6 8.0 0.10 5.99 5.94 90 1005.4
20260502011904 13 350 0.0 8.0 0.10 5.99 5.94 90 1005.4
20260502011802 13 0 0.0 8.0 0.13 5.99 5.94 90 1005.3
20260502011702 13 0 1.6 8.0 0.13 5.99 5.94 90 1005.3
20260502011602 13 0 3.2 8.0 0.13 5.99 5.92 90 1005.3
20260502011503 13 85 1.6 3.2 0.10 5.99 5.92 90 1005.4
20260502011402 13 86 1.6 3.2 0.13 5.99 5.92 90 1005.5
20260502011303 13 0 1.6 3.2 0.13 5.99 5.92 90 1005.5
20260502011204 13 0 1.6 3.2 0.13 5.99 5.92 90 1005.6
20260502011102 13 0 1.6 3.2 0.13 5.99 5.92 90 1005.7
20260502011004 13 341 1.6 6.4 0.13 5.99 5.92 90 1005.8
20260502010903 13 54 0.0 6.4 0.13 5.99 5.92 90 1005.8
20260502010802 13 56 1.6 6.4 0.13 5.99 5.92 90 1005.8
20260502010703 13 78 1.6 6.4 0.13 5.99 5.92 90 1005.9
20260502010603 13 78 1.6 6.4 0.13 5.99 5.92 90 1005.8
20260502010502 13 72 1.6 6.4 0.13 5.99 5.92 90 1005.9
20260502010403 13 171 1.6 6.4 0.13 5.99 5.92 90 1005.9
20260502010303 13 102 1.6 8.0 0.13 5.99 5.92 90 1006.0
20260502010203 13 102 3.2 8.0 0.13 5.99 5.89 90 1005.9
20260502010003 13 257 1.6 8.0 0.10 5.89 5.99 90 1005.9
20260502005904 13 257 0.0 8.0 0.10 5.89 5.99 90 1005.9
20260502005802 13 257 1.6 8.0 0.10 5.89 5.99 90 1005.8
20260502005711 13 252 1.6 8.0 0.10 5.89 5.99 90 1005.8
20260502005602 13 212 1.6 8.0 0.13 5.89 5.99 90 1005.7
20260502005502 13 152 3.2 8.0 0.13 5.89 5.99 90 1005.7
20260502005404 14 155 1.6 6.4 0.13 5.89 5.99 90 1005.6
20260502005306 14 158 1.6 6.4 0.13 5.89 5.99 90 1005.4
20260502005203 14 133 1.6 6.4 0.13 5.89 5.99 90 1005.4
20260502005103 14 214 1.6 6.4 0.15 5.89 5.99 90 1005.4
20260502005003 14 206 3.2 6.4 0.15 5.89 5.99 90 1005.3
20260502004905 14 255 3.2 6.4 0.15 5.89 5.99 90 1005.3
20260502004802 14 128 3.2 8.0 0.18 5.89 5.99 90 1005.2
20260502004702 14 162 3.2 8.0 0.18 5.89 5.99 90 1005.1
20260502004602 14 289 1.6 8.0 0.18 5.89 5.99 90 1005.0
20260502004504 14 135 0.0 8.0 0.18 5.89 5.99 90 1005.0
20260502004402 14 62 0.0 8.0 0.18 5.89 5.99 90 1004.9
20260502004304 14 62 1.6 8.0 0.18 5.89 5.99 90 1004.8
20260502004202 14 62 1.6 8.0 0.18 5.89 5.99 90 1004.8
20260502004107 14 61 1.6 8.0 0.20 5.89 5.99 90 1004.7
20260502004005 14 0 3.2 8.0 0.20 5.89 5.99 90 1004.7
20260502003904 14 186 3.2 8.0 0.20 5.89 5.99 90 1004.5
20260502003804 14 148 0.0 8.0 0.23 5.89 5.99 90 1004.5
20260502003703 14 148 1.6 8.0 0.23 5.89 5.99 90 1004.5
20260502003603 14 148 3.2 8.0 0.23 5.89 5.99 90 1004.5
20260502003503 14 90 3.2 8.0 0.23 5.89 5.99 90 1004.5
20260502003403 14 140 3.2 8.0 0.25 5.89 5.99 90 1004.5
20260502003304 14 39 1.6 6.4 0.25 5.89 5.97 90 1004.5
20260502003203 14 148 1.6 6.4 0.23 5.89 5.97 90 1004.5
20260502003102 14 197 1.6 6.4 0.25 5.89 5.97 90 1004.5
20260502003004 14 196 1.6 6.4 0.25 5.89 5.97 90 1004.4
20260502002903 14 17 1.6 6.4 0.28 5.89 5.97 90 1004.5
20260502002804 14 20 3.2 6.4 0.28 5.89 5.97 90 1004.3
20260502002703 14 30 3.2 6.4 0.30 5.89 5.97 90 1004.3
20260502002604 14 83 3.2 6.4 0.33 5.89 5.97 90 1004.3
20260502002504 15 42 3.2 6.4 0.33 5.89 5.97 90 1004.3
20260502002402 15 76 1.6 6.4 0.33 5.89 5.94 90 1004.4
20260502002306 15 79 1.6 6.4 0.30 5.89 5.94 90 1004.5
20260502002204 15 83 1.6 6.4 0.30 5.89 5.94 90 1004.5
20260502002104 15 109 3.2 6.4 0.30 5.89 5.94 90 1004.6
20260502002004 15 55 3.2 6.4 0.30 5.89 5.94 90 1004.6
20260502001902 15 72 1.6 4.8 0.30 5.89 5.92 90 1004.7
20260502001802 15 35 0.0 4.8 0.28 5.89 5.92 90 1004.8
20260502001702 15 35 0.0 4.8 0.28 5.89 5.92 90 1004.9
20260502001613 15 35 1.6 4.8 0.28 5.89 5.92 90 1005.0
20260502001504 15 35 3.2 4.8 0.28 5.89 5.89 90 1005.2
20260502001403 15 35 3.2 4.8 0.25 5.89 5.89 90 1005.2
20260502001303 15 24 1.6 4.8 0.25 5.89 5.89 90 1005.3
20260502001202 15 61 0.0 3.2 0.25 5.89 5.89 90 1005.3
20260502001102 15 61 0.0 4.8 0.25 5.89 5.89 90 1005.4
20260502001003 15 61 1.6 4.8 0.25 5.89 5.89 90 1005.4
20260502000902 15 61 1.6 4.8 0.25 5.89 5.89 90 1005.4
20260502000809 15 159 1.6 4.8 0.25 5.89 5.89 90 1005.4
20260502000702 15 79 1.6 4.8 0.25 5.89 5.89 90 1005.3
20260502000602 15 104 0.0 4.8 0.25 5.89 5.89 90 1005.3
20260502000502 15 104 0.0 4.8 0.28 5.89 5.89 90 1005.2
20260502000403 15 104 1.6 4.8 0.28 5.89 5.89 90 1005.2
20260502000302 15 104 1.6 4.8 0.28 5.89 5.89 90 1005.0
20260502000203 15 103 1.6 4.8 0.28 5.89 5.89 90 1005.0
20260502000004 15 319 0.0 4.8 0.28 5.61 5.89 90 1004.7
20260501235903 15 319 0.0 4.8 0.28 5.61 5.89 90 1004.6
20260501235805 15 18 0.0 4.8 0.28 5.61 5.89 90 1004.5
20260501235703 15 93 0.0 4.8 0.28 5.61 5.87 90 1004.5
20260501235604 15 93 1.6 4.8 0.25 5.61 5.87 90 1004.5
20260501235505 15 93 1.6 4.8 0.25 5.61 5.87 90 1004.5
20260501235403 15 78 0.0 3.2 0.28 5.61 5.87 90 1004.5
20260501235305 15 78 1.6 3.2 0.28 5.61 5.87 90 1004.4
20260501235205 15 76 1.6 3.2 0.28 5.61 5.84 90 1004.4
20260501235102 15 79 0.0 3.2 0.25 5.61 5.84 90 1004.3
20260501235006 15 123 1.6 3.2 0.25 5.61 5.84 90 1004.4
20260501234903 15 123 1.6 3.2 0.28 5.61 5.82 90 1004.4
20260501234805 15 123 1.6 3.2 0.25 5.61 5.82 90 1004.4
20260501234703 15 123 1.6 3.2 0.25 5.61 5.82 90 1004.5
20260501234602 15 123 1.6 3.2 0.28 5.61 5.82 90 1004.5
20260501234503 15 123 1.6 3.2 0.28 5.61 5.82 90 1004.4
20260501234403 15 102 1.6 3.2 0.30 5.61 5.82 90 1004.5
20260501234303 15 102 1.6 3.2 0.30 5.61 5.82 90 1004.5
20260501234203 15 102 1.6 3.2 0.33 5.61 5.79 90 1004.6
20260501234103 15 62 1.6 3.2 0.30 5.61 5.79 90 1004.5
20260501234004 15 62 1.6 3.2 0.30 5.61 5.79 90 1004.6
20260501233902 15 49 1.6 3.2 0.30 5.61 5.77 90 1004.6
20260501233802 15 334 1.6 3.2 0.30 5.61 5.77 90 1004.5
20260501233702 15 334 1.6 3.2 0.30 5.61 5.77 90 1004.5
20260501233603 15 334 0.0 3.2 0.30 5.61 5.77 90 1004.5
20260501233504 15 334 0.0 3.2 0.30 5.61 5.74 90 1004.5
20260501233402 15 334 0.0 3.2 0.28 5.61 5.74 90 1004.6
20260501233304 15 334 0.0 3.2 0.28 5.61 5.74 90 1004.5
20260501233202 15 334 0.0 3.2 0.28 5.61 5.71 90 1004.6
20260501233102 15 334 0.0 3.2 0.25 5.61 5.71 90 1004.6
20260501233004 15 334 0.0 3.2 0.25 5.61 5.69 90 1004.5
20260501232905 15 334 0.0 3.2 0.23 5.61 5.69 90 1004.5
20260501232803 15 334 1.6 3.2 0.23 5.61 5.66 90 1004.3
20260501232707 15 334 1.6 3.2 0.20 5.61 5.64 90 1004.3
20260501232602 15 76 1.6 3.2 0.18 5.61 5.64 90 1004.3
20260501232504 15 61 1.6 3.2 0.18 5.61 5.64 90 1004.4
20260501232404 15 61 1.6 3.2 0.18 5.61 5.64 90 1004.3
20260501232306 15 87 1.6 3.2 0.18 5.61 5.64 90 1004.3
20260501232203 15 89 0.0 3.2 0.18 5.61 5.64 90 1004.4
20260501232103 15 302 0.0 3.2 0.18 5.61 5.64 90 1004.4
20260501232003 15 302 1.6 3.2 0.18 5.61 5.64 90 1004.4
20260501231903 15 334 0.0 3.2 0.18 5.61 5.64 90 1004.4
20260501231803 15 334 1.6 3.2 0.18 5.61 5.64 90 1004.4
20260501231703 15 334 1.6 3.2 0.18 5.61 5.64 90 1004.3
20260501231603 15 334 0.0 3.2 0.18 5.61 5.64 90 1004.3
20260501231504 15 334 0.0 3.2 0.18 5.61 5.64 90 1004.2
20260501231403 15 334 1.6 3.2 0.18 5.61 5.64 90 1004.1
20260501231302 15 334 1.6 3.2 0.18 5.61 5.64 90 1003.9
20260501231203 15 327 1.6 4.8 0.18 5.61 5.64 90 1003.8
20260501231102 15 327 0.0 4.8 0.18 5.61 5.64 90 1003.6
20260501231004 15 327 0.0 4.8 0.18 5.61 5.64 90 1003.4
20260501230904 15 327 0.0 4.8 0.18 5.61 5.64 90 1003.2
20260501230804 15 327 0.0 4.8 0.18 5.61 5.64 90 1003.1
20260501230703 15 327 0.0 4.8 0.18 5.61 5.61 90 1003.0
20260501230603 15 0 0.0 4.8 0.18 5.61 5.61 90 1002.9
20260501230504 15 0 1.6 4.8 0.15 5.61 5.61 90 1002.8
20260501230403 15 0 1.6 4.8 0.15 5.61 5.61 90 1002.8
20260501230302 15 343 1.6 4.8 0.15 5.61 5.61 90 1002.8
20260501230203 15 109 0.0 3.2 0.15 5.61 5.61 90 1002.9
20260501230104 15 109 1.6 3.2 0.15 5.61 5.61 90 1002.8
20260501230004 15 109 1.6 3.2 0.15 5.46 5.61 90 1002.7
20260501225903 15 114 1.6 3.2 0.15 5.46 5.61 90 1002.7
20260501225802 15 114 1.6 3.2 0.15 5.46 5.61 90 1002.6
20260501225703 15 114 0.0 3.2 0.15 5.46 5.61 90 1002.6
20260501225603 15 110 1.6 3.2 0.15 5.46 5.61 90 1002.5
20260501225504 15 110 1.6 3.2 0.15 5.46 5.59 90 1002.6
20260501225412 15 354 0.0 3.2 0.13 5.46 5.59 90 1002.6
20260501225305 15 354 1.6 3.2 0.13 5.46 5.59 90 1002.7
20260501225203 15 355 1.6 3.2 0.13 5.46 5.59 90 1002.8
20260501225102 15 354 1.6 3.2 0.13 5.46 5.56 90 1002.8
20260501225004 15 340 1.6 3.2 0.10 5.46 5.56 90 1002.9
20260501224903 15 11 1.6 4.8 0.10 5.46 5.56 90 1002.9
20260501224803 15 54 1.6 4.8 0.10 5.46 5.56 90 1002.9
20260501224706 15 54 1.6 4.8 0.10 5.46 5.54 90 1002.9
20260501224604 15 316 1.6 4.8 0.10 5.46 5.54 90 1003.0
20260501224505 15 326 1.6 4.8 0.10 5.46 5.51 90 1002.9
20260501224403 15 200 1.6 4.8 0.08 5.46 5.51 90 1002.9
20260501224303 15 97 1.6 4.8 0.08 5.46 5.49 90 1002.8
20260501224203 15 106 1.6 4.8 0.05 5.46 5.49 90 1002.8
20260501224102 15 102 3.2 4.8 0.05 5.46 5.49 90 1002.6
20260501224003 15 39 1.6 4.8 0.05 5.46 5.49 90 1002.6
20260501223902 15 113 1.6 4.8 0.05 5.46 5.46 90 1002.5
20260501223803 15 44 1.6 4.8 0.03 5.46 5.46 90 1002.6
20260501223702 15 76 3.2 8.0 0.03 5.46 5.46 90 1002.6
20260501223602 15 76 3.2 8.0 0.03 5.46 5.46 90 1002.7
20260501223503 15 106 3.2 8.0 0.03 5.46 5.46 90 1002.8
20260501223401 15 62 3.2 8.0 0.03 5.46 5.46 90 1002.9
20260501223301 15 345 1.6 8.0 0.03 5.46 5.46 90 1003.0
20260501223203 15 286 1.6 8.0 0.03 5.46 5.46 90 1003.1
20260501223102 15 286 3.2 8.0 0.03 5.46 5.46 90 1002.9
20260501223002 15 324 3.2 8.0 0.03 5.46 5.46 90 1002.8
20260501222902 15 1 3.2 8.0 0.03 5.46 5.46 90 1002.6
20260501222804 15 39 3.2 8.0 0.03 5.46 5.46 90 1002.4
20260501222702 15 124 1.6 6.4 0.03 5.46 5.46 90 1002.1
20260501222603 15 206 1.6 6.4 0.03 5.46 5.46 90 1001.9
20260501222503 15 206 1.6 6.4 0.03 5.46 5.46 90 1001.6
20260501222403 15 206 1.6 6.4 0.03 5.46 5.46 90 1001.4
20260501222305 15 206 1.6 6.4 0.03 5.46 5.46 90 1001.2
20260501222202 15 319 3.2 6.4 0.03 5.46 5.46 90 1001.2
20260501222103 15 321 3.2 6.4 0.03 5.46 5.46 90 1001.1
20260501222004 15 300 3.2 4.8 0.05 5.46 5.46 90 1001.0
20260501221902 15 149 3.2 4.8 0.05 5.46 5.46 90 1001.1
20260501221802 15 149 3.2 6.4 0.05 5.46 5.46 90 1001.2
20260501221703 15 265 1.6 6.4 0.05 5.46 5.46 90 1001.3
20260501221602 15 264 1.6 6.4 0.05 5.46 5.46 90 1001.3
20260501221503 15 233 1.6 6.4 0.08 5.46 5.46 90 1001.4
20260501221404 15 296 1.6 6.4 0.08 5.46 5.46 90 1001.4
20260501221303 15 296 1.6 6.4 0.08 5.46 5.46 90 1001.3
20260501221203 15 296 1.6 6.4 0.08 5.46 5.46 90 1001.3
20260501221101 15 125 3.2 6.4 0.08 5.46 5.46 90 1001.3
20260501221004 15 116 3.2 6.4 0.10 5.46 5.46 90 1001.3
20260501220903 15 0 3.2 6.4 0.10 5.46 5.46 90 1001.5
20260501220803 15 343 3.2 4.8 0.10 5.46 5.46 90 1001.5
20260501220703 15 351 3.2 6.4 0.10 5.46 5.46 90 1001.6
20260501220603 15 76 3.2 6.4 0.10 5.46 5.46 90 1001.6
20260501220502 15 0 3.2 6.4 0.10 5.46 5.46 90 1001.8
20260501220403 15 14 1.6 6.4 0.10 5.46 5.46 90 1001.8
20260501220304 15 302 1.6 6.4 0.10 5.46 5.46 90 1001.9
20260501220203 15 302 1.6 6.4 0.10 5.46 5.46 90 1002.0
20260501220004 15 281 1.6 6.4 0.13 5.33 5.46 90 1002.2
20260501215903 15 281 1.6 6.4 0.13 5.33 5.46 90 1002.3
20260501215803 15 281 3.2 6.4 0.13 5.33 5.46 90 1002.3
20260501215706 15 166 1.6 4.8 0.13 5.33 5.46 90 1002.2
20260501215603 15 90 1.6 4.8 0.13 5.33 5.46 90 1002.2
20260501215503 15 89 1.6 4.8 0.13 5.33 5.46 90 1002.1
20260501215404 15 48 1.6 4.8 0.13 5.33 5.46 90 1002.2
20260501215259 15 47 1.6 4.8 0.13 5.33 5.46 90 1002.2
20260501215145 15 97 3.2 4.8 0.13 5.33 5.46 90 1002.3
20260501215047 15 85 1.6 4.8 0.13 5.33 5.46 90 1002.4
20260501214944 15 85 1.6 4.8 0.13 5.33 5.46 90 1002.5
20260501214852 15 56 3.2 4.8 0.13 5.33 5.46 90 1002.6
20260501214747 15 312 3.2 4.8 0.13 5.33 5.46 90 1002.6
20260501214647 15 7 3.2 6.4 0.13 5.33 5.44 90 1002.7
20260501214544 15 18 3.2 6.4 0.10 5.33 5.44 90 1002.7
20260501214445 15 269 1.6 6.4 0.10 5.33 5.44 90 1002.6
20260501214344 15 266 1.6 6.4 0.10 5.33 5.44 90 1002.5
20260501214246 15 266 1.6 6.4 0.10 5.33 5.44 90 1002.6
20260501214144 15 265 1.6 6.4 0.13 5.33 5.44 90 1002.6
20260501214046 15 168 1.6 6.4 0.13 5.33 5.44 90 1002.7
20260501213944 15 97 1.6 6.4 0.13 5.33 5.44 90 1002.8
20260501213845 15 99 3.2 6.4 0.13 5.33 5.44 90 1003.1
20260501213744 16 82 3.2 6.4 0.13 5.33 5.44 90 1003.2
20260501213644 16 71 3.2 4.8 0.13 5.33 5.44 90 1003.3
20260501213545 16 80 1.6 6.4 0.13 5.33 5.44 90 1003.4
20260501213444 15 96 1.6 6.4 0.13 5.33 5.44 90 1003.5
20260501213346 16 92 0.0 6.4 0.13 5.33 5.44 90 1003.4
20260501213244 16 96 1.6 6.4 0.13 5.33 5.44 90 1003.5
20260501213146 16 94 1.6 6.4 0.13 5.33 5.44 90 1003.4
20260501213044 16 52 0.0 6.4 0.13 5.33 5.44 90 1003.4
20260501212945 16 52 1.6 6.4 0.13 5.33 5.44 90 1003.3
20260501212844 16 51 1.6 6.4 0.13 5.33 5.44 90 1003.2
20260501212745 16 72 3.2 6.4 0.13 5.33 5.44 90 1003.2
20260501212645 16 79 3.2 6.4 0.13 5.33 5.44 90 1003.2
20260501212544 16 298 3.2 6.4 0.13 5.33 5.44 90 1003.2
20260501212446 16 281 3.2 6.4 0.13 5.33 5.44 90 1003.1
20260501212344 16 214 3.2 6.4 0.13 5.33 5.44 90 1003.1
20260501212244 16 172 1.6 6.4 0.13 5.33 5.44 90 1003.1
20260501212145 16 87 1.6 6.4 0.13 5.33 5.44 90 1002.9
20260501212044 16 94 1.6 6.4 0.13 5.33 5.41 90 1002.9
20260501211945 16 193 1.6 6.4 0.10 5.33 5.41 90 1002.9
20260501211844 16 193 1.6 6.4 0.10 5.33 5.41 90 1002.9
20260501211744 16 193 1.6 6.4 0.13 5.33 5.41 90 1002.8
20260501211644 16 331 1.6 6.4 0.13 5.33 5.41 90 1002.6
20260501211544 16 343 3.2 6.4 0.10 5.33 5.38 90 1002.4
20260501211445 16 65 1.6 6.4 0.10 5.33 5.38 90 1002.3
20260501211344 16 44 1.6 4.8 0.10 5.33 5.38 90 1002.3
20260501211246 16 79 1.6 4.8 0.10 5.33 5.38 90 1002.5
20260501211145 16 85 1.6 4.8 0.10 5.33 5.36 90 1002.8
20260501211044 16 85 1.6 8.0 0.10 5.33 5.36 90 1003.0
20260501210943 16 85 1.6 8.0 0.08 5.33 5.36 90 1003.1
20260501210843 16 127 1.6 8.0 0.08 5.33 5.36 90 1003.1
20260501210748 16 241 0.0 8.0 0.10 5.33 5.36 90 1003.1
20260501210645 16 241 1.6 8.0 0.10 5.33 5.36 90 1003.0
20260501210544 16 241 3.2 8.0 0.10 5.33 5.36 90 1003.0
20260501210445 16 351 1.6 8.0 0.10 5.33 5.36 90 1003.0
20260501210344 16 107 1.6 8.0 0.10 5.33 5.36 90 1002.8
20260501210244 16 107 3.2 8.0 0.10 5.33 5.33 90 1002.9
20260501210145 16 65 3.2 8.0 0.08 5.33 5.33 90 1002.9
20260501210044 16 106 1.6 4.8 0.10 5.33 5.33 90 1002.9
20260501205943 16 71 3.2 4.8 0.10 5.23 5.33 90 1002.8
20260501205845 16 162 1.6 3.2 0.10 5.23 5.33 90 1002.9
20260501205744 16 164 0.0 3.2 0.13 5.23 5.33 90 1002.9
20260501205645 16 164 1.6 3.2 0.15 5.23 5.33 90 1002.9
20260501205543 16 230 0.0 3.2 0.15 5.23 5.33 90 1003.0
20260501205444 16 230 0.0 3.2 0.15 5.23 5.33 90 1003.0
20260501205343 16 230 0.0 3.2 0.15 5.23 5.33 90 1002.9
20260501205243 16 230 0.0 3.2 0.15 5.23 5.33 90 1002.7
20260501205143 16 230 1.6 3.2 0.18 5.23 5.33 90 1002.5
20260501205044 16 230 0.0 4.8 0.18 5.23 5.33 90 1002.4
20260501204944 16 230 0.0 4.8 0.18 5.23 5.33 90 1002.2
20260501204843 16 230 0.0 4.8 0.18 5.23 5.33 90 1002.0
20260501204743 16 230 0.0 4.8 0.20 5.23 5.33 90 1001.8
20260501204643 16 230 1.6 4.8 0.20 5.23 5.33 90 1001.7
20260501204543 16 251 1.6 4.8 0.20 5.23 5.33 90 1001.6
20260501204444 16 195 1.6 4.8 0.20 5.23 5.33 90 1001.6
20260501204345 16 58 1.6 4.8 0.23 5.23 5.33 90 1001.4
20260501204243 16 24 1.6 4.8 0.23 5.23 5.33 90 1001.2
20260501204145 16 73 3.2 4.8 0.20 5.23 5.31 90 1001.1
20260501204045 16 166 3.2 4.8 0.23 5.23 5.31 90 1001.1
20260501203943 16 347 3.2 4.8 0.23 5.23 5.31 90 1001.1
20260501203845 16 87 1.6 3.2 0.23 5.23 5.31 90 1001.1
20260501203743 16 90 1.6 3.2 0.23 5.23 5.31 90 1001.2
20260501203645 16 118 1.6 4.8 0.23 5.23 5.31 90 1001.5
20260501203543 16 44 1.6 9.7 0.23 5.23 5.31 90 1001.8
20260501203448 16 45 1.6 9.7 0.23 5.23 5.31 90 1002.0
20260501203345 16 0 1.6 9.7 0.23 5.23 5.31 90 1002.1
20260501203244 16 0 0.0 9.7 0.23 5.23 5.31 90 1002.2
20260501203143 16 278 0.0 9.7 0.23 5.23 5.31 90 1002.1
20260501203044 16 278 1.6 9.7 0.23 5.23 5.31 90 1002.1
20260501202944 16 278 1.6 9.7 0.28 5.23 5.31 90 1002.1
20260501202842 16 278 3.2 9.7 0.28 5.23 5.31 90 1002.2
20260501202743 16 278 3.2 9.7 0.28 5.23 5.31 90 1002.2
20260501202643 16 59 1.6 9.7 0.30 5.23 5.31 90 1002.1
20260501202544 16 94 1.6 4.8 0.30 5.23 5.31 90 1002.0
20260501202443 16 152 1.6 4.8 0.33 5.23 5.31 90 1002.1
20260501202343 16 152 1.6 4.8 0.33 5.23 5.31 90 1002.0
20260501202244 16 154 1.6 4.8 0.33 5.23 5.31 90 1002.0
20260501202143 16 100 1.6 4.8 0.33 5.23 5.31 90 1002.0
20260501202044 16 100 1.6 6.4 0.33 5.23 5.31 90 1002.0
20260501201943 16 52 1.6 6.4 0.33 5.23 5.31 90 1002.0
20260501201846 16 79 1.6 6.4 0.33 5.23 5.28 90 1002.0
20260501201744 16 38 3.2 8.0 0.30 5.23 5.28 90 1002.0
20260501201644 16 164 3.2 8.0 0.30 5.23 5.28 90 1002.0
20260501201544 16 78 1.6 8.0 0.30 5.23 5.28 90 1001.9
20260501201443 16 86 3.2 8.0 0.30 5.23 5.28 90 1001.8
20260501201343 16 69 3.2 8.0 0.30 5.23 5.28 90 1001.7
20260501201243 16 94 3.2 8.0 0.30 5.23 5.28 90 1001.8
20260501201143 16 66 1.6 8.0 0.30 5.23 5.28 90 1001.7
20260501201043 16 61 1.6 8.0 0.30 5.23 5.28 90 1001.6
20260501200944 16 59 3.2 8.0 0.30 5.23 5.28 90 1001.5
20260501200844 16 59 3.2 8.0 0.30 5.23 5.28 90 1001.4
20260501200743 16 79 1.6 6.4 0.28 5.23 5.26 90 1001.3
20260501200643 16 31 3.2 6.4 0.28 5.23 5.26 90 1001.2
20260501200543 16 65 3.2 6.4 0.28 5.23 5.26 90 1001.3
20260501200443 16 24 1.6 4.8 0.28 5.23 5.26 90 1001.3
20260501200342 16 30 1.6 4.8 0.28 5.23 5.26 90 1001.4
20260501200243 16 25 1.6 4.8 0.28 5.23 5.23 90 1001.6
20260501200143 16 63 1.6 14.5 0.28 5.23 5.23 90 1001.8
20260501200045 16 65 1.6 14.5 0.25 5.23 5.23 90 1001.9
20260501195942 16 106 1.6 14.5 0.25 4.98 5.23 90 1002.2
20260501195843 16 106 0.0 14.5 0.25 4.98 5.21 90 1002.3
20260501195743 16 116 1.6 14.5 0.23 4.98 5.21 90 1002.4
20260501195642 16 116 1.6 14.5 0.20 4.98 5.18 90 1002.3
20260501195543 16 176 1.6 14.5 0.20 4.98 5.18 90 1002.3
20260501195444 16 55 1.6 14.5 0.20 4.98 5.18 90 1002.1
20260501195342 16 79 3.2 14.5 0.20 4.98 5.18 90 1001.9
20260501195244 16 154 3.2 14.5 0.20 4.98 5.16 90 1002.1
20260501195143 16 103 1.6 4.8 0.18 4.98 5.16 90 1002.2
20260501195134 16 109 1.6 4.8 0.18 4.98 5.13 90 1002.5
20260501195121 16 59 1.6 4.8 0.18 4.98 5.16 90 1002.4
20260501195103 16 109 1.6 4.8 0.18 4.98 5.16 90 1002.4
20260501194743 16 145 1.6 4.8 0.15 4.98 5.13 90 1002.5
20260501194643 16 145 1.6 4.8 0.15 4.98 5.13 90 1002.3
20260501194542 16 165 0.0 3.2 0.15 4.98 5.13 90 1002.2
20260501194442 16 165 0.0 3.2 0.15 4.98 5.11 90 1002.1
20260501194343 16 165 0.0 3.2 0.13 4.98 5.11 90 1002.1
20260501194244 16 165 0.0 3.2 0.13 4.98 5.08 90 1002.2
20260501194141 16 169 1.6 3.2 0.13 4.98 5.08 90 1002.3
20260501194043 16 169 1.6 3.2 0.10 4.98 5.08 90 1002.4
20260501193942 16 169 1.6 3.2 0.10 4.98 5.08 90 1002.6
20260501193843 16 178 1.6 3.2 0.10 4.98 5.08 90 1002.8
20260501193748 16 178 1.6 3.2 0.10 4.98 5.08 90 1003.1
20260501193642 16 230 1.6 3.2 0.10 4.98 5.08 90 1003.2
20260501193542 16 118 0.0 3.2 0.10 4.98 5.08 90 1002.8
20260501193442 16 118 0.0 3.2 0.10 4.98 5.08 90 1002.8
20260501193341 16 118 0.0 3.2 0.10 4.98 5.08 90 1002.6
20260501193241 16 118 1.6 3.2 0.10 4.98 5.08 90 1002.1
20260501193141 16 118 1.6 3.2 0.10 4.98 5.08 90 1002.1
20260501193042 16 75 1.6 3.2 0.10 4.98 5.00 90 1002.2
20260501192943 16 357 1.6 3.2 0.05 4.98 5.00 90 1002.3
20260501192843 16 357 1.6 3.2 0.05 4.98 5.00 90 1002.3
20260501192741 16 202 0.0 3.2 0.05 4.98 5.00 90 1002.3
20260501192643 16 202 1.6 3.2 0.03 4.98 5.00 90 1002.4
20260501192543 16 202 1.6 3.2 0.03 4.98 5.00 90 1002.4
20260501192441 16 124 1.6 3.2 0.00 4.98 4.98 90 1002.4
20260501192342 16 142 1.6 3.2 0.00 4.98 4.98 90 1002.3
20260501192243 16 142 1.6 3.2 0.00 4.98 4.98 90 1002.3
20260501192143 16 142 0.0 3.2 0.00 4.98 4.98 90 1002.2
20260501192042 16 142 0.0 3.2 0.00 4.98 4.98 90 1002.1
20260501191941 16 142 1.6 3.2 0.00 4.98 4.98 90 1002.1
20260501191842 16 142 1.6 3.2 0.00 4.98 4.98 90 1002.1
20260501191742 16 142 1.6 3.2 0.00 4.98 4.98 90 1002.1
20260501191643 16 142 1.6 3.2 0.00 4.98 4.98 90 1002.2
20260501191541 16 141 1.6 3.2 0.00 4.98 4.98 90 1002.2
20260501191443 17 141 1.6 3.2 0.00 4.98 4.98 90 1002.3
20260501191341 16 141 1.6 4.8 0.00 4.98 4.98 90 1002.4
20260501191241 17 141 0.0 4.8 0.00 4.98 4.98 90 1002.3
20260501191141 17 141 0.0 4.8 0.00 4.98 4.98 90 1002.4
20260501191041 17 141 0.0 4.8 0.00 4.98 4.98 90 1002.3
20260501190943 17 141 1.6 4.8 0.00 4.98 4.98 90 1002.3
20260501190842 17 141 1.6 4.8 0.00 4.98 4.98 90 1002.2
20260501190742 17 89 1.6 4.8 0.00 4.98 4.98 90 1002.2
20260501190642 17 89 1.6 4.8 0.00 4.98 4.98 90 1002.1
20260501190541 17 89 1.6 4.8 0.00 4.98 4.98 90 1001.9
20260501190447 17 17 0.0 4.8 0.00 4.98 4.98 90 1001.8
20260501190342 17 16 0.0 4.8 0.00 4.98 4.98 90 1001.8
20260501190242 17 16 0.0 4.8 0.03 4.98 4.98 90 1001.7
20260501190142 17 16 0.0 6.4 0.03 4.98 4.98 90 1001.7
20260501190042 17 39 0.0 6.4 0.03 4.98 4.98 90 1001.5
20260501185941 17 203 0.0 6.4 0.03 4.95 4.98 90 1001.5
20260501185841 17 199 1.6 6.4 0.03 4.95 4.98 90 1001.5
20260501185741 17 199 1.6 6.4 0.03 4.95 4.98 90 1001.4
20260501185643 17 183 1.6 6.4 0.03 4.95 4.98 90 1001.3
20260501185540 17 183 1.6 6.4 0.03 4.95 4.98 90 1001.4
20260501185442 17 321 1.6 6.4 0.03 4.95 4.98 90 1001.3
20260501185342 17 321 1.6 6.4 0.03 4.95 4.98 90 1001.3
20260501185240 17 319 1.6 6.4 0.03 4.95 4.98 90 1001.3
20260501185141 17 310 1.6 6.4 0.03 4.95 4.98 90 1001.2
20260501185040 17 310 1.6 6.4 0.03 4.95 4.98 90 1001.2
20260501184940 17 21 1.6 6.4 0.03 4.95 4.98 90 1001.1
20260501184841 17 21 3.2 6.4 0.03 4.95 4.98 90 1001.0
20260501184742 17 305 3.2 6.4 0.03 4.95 4.98 90 1000.9
20260501184642 17 266 3.2 6.4 0.03 4.95 4.98 90 1000.9
20260501184541 17 10 3.2 6.4 0.05 4.95 4.98 90 1000.8
20260501184442 17 288 1.6 6.4 0.05 4.95 4.98 90 1000.9
20260501184341 17 272 1.6 3.2 0.05 4.95 4.98 90 1000.8
20260501184240 17 319 1.6 3.2 0.05 4.95 4.98 90 1001.0
20260501184141 17 319 1.6 4.8 0.05 4.95 4.98 90 1001.0
20260501184040 17 319 0.0 4.8 0.05 4.95 4.98 90 1001.2
20260501183942 17 319 1.6 4.8 0.05 4.95 4.98 90 1001.2
20260501183840 17 316 1.6 4.8 0.05 4.95 4.98 90 1001.2
20260501183742 17 316 1.6 4.8 0.05 4.95 4.98 90 1001.2
20260501183640 17 27 1.6 4.8 0.05 4.95 4.98 91 1001.3
20260501183541 17 27 1.6 4.8 0.05 4.95 4.98 91 1001.5
20260501183441 17 278 0.0 4.8 0.05 4.95 4.98 90 1001.4
20260501183342 17 278 0.0 4.8 0.08 4.95 4.98 90 1001.5
20260501183241 17 278 1.6 4.8 0.08 4.95 4.98 90 1001.5
20260501183140 17 288 0.0 4.8 0.08 4.95 4.98 90 1001.5
20260501183042 17 152 0.0 4.8 0.08 4.95 4.98 90 1001.5
20260501182941 17 152 1.6 4.8 0.08 4.95 4.98 90 1001.4
20260501182842 17 151 3.2 4.8 0.08 4.95 4.98 90 1001.3
20260501182740 17 154 3.2 4.8 0.08 4.95 4.98 90 1001.3
20260501182641 17 76 1.6 4.8 0.08 4.95 4.98 90 1001.3
20260501182540 17 76 1.6 4.8 0.08 4.95 4.98 90 1001.2
20260501182440 17 76 3.2 4.8 0.10 4.95 4.98 90 1001.2
20260501182341 17 324 3.2 8.0 0.10 4.95 4.98 90 1001.1
20260501182240 17 169 1.6 8.0 0.10 4.95 4.98 91 1001.0
20260501182138 17 169 1.6 8.0 0.10 4.95 4.98 91 1000.8
20260501182034 17 169 1.6 8.0 0.10 4.95 4.98 91 1000.6
20260501181931 17 169 1.6 8.0 0.10 4.95 4.98 91 1000.5
20260501181832 17 109 1.6 8.0 0.10 4.95 4.98 91 1000.5
20260501181732 17 109 1.6 8.0 0.10 4.95 4.98 91 1000.4
20260501181631 17 109 1.6 8.0 0.10 4.95 4.98 91 1000.5
20260501181531 16 109 3.2 8.0 0.10 4.95 4.98 91 1000.5
20260501181433 16 128 3.2 8.0 0.10 4.95 4.98 91 1000.6
20260501181331 16 338 0.0 4.8 0.10 4.95 4.98 91 1000.5
20260501181232 16 338 1.6 4.8 0.10 4.95 4.98 90 1000.5
20260501181131 16 338 1.6 4.8 0.10 4.95 4.98 90 1000.4
20260501181030 16 0 3.2 4.8 0.10 4.95 4.98 90 1000.1
20260501180933 16 25 3.2 4.8 0.13 4.95 4.98 91 1000.0
20260501180831 16 289 3.2 4.8 0.13 4.95 4.98 91 999.8
20260501180732 16 140 3.2 4.8 0.13 4.95 4.98 91 999.6
20260501180632 16 0 1.6 4.8 0.13 4.95 4.98 90 999.3
20260501180532 16 1 1.6 4.8 0.13 4.95 4.98 90 999.1
20260501180433 16 1 1.6 4.8 0.13 4.95 4.98 90 999.2
20260501180332 16 0 1.6 4.8 0.13 4.95 4.95 90 999.3
20260501180231 16 0 1.6 6.4 0.10 4.95 4.95 90 999.5
20260501180131 16 148 1.6 6.4 0.10 4.95 4.95 90 999.6
20260501180031 16 148 3.2 6.4 0.10 4.95 4.95 90 999.7
20260501175931 16 37 1.6 6.4 0.10 4.85 4.95 90 999.8
20260501175831 16 25 1.6 6.4 0.10 4.85 4.95 90 1000.0
20260501175732 16 83 1.6 6.4 0.10 4.85 4.95 90 1000.0
20260501175633 16 78 1.6 6.4 0.10 4.85 4.95 90 1000.3
20260501175531 16 59 3.2 6.4 0.10 4.85 4.95 90 1000.3
20260501175432 16 71 3.2 6.4 0.13 4.85 4.95 90 1000.5
20260501175330 16 307 3.2 6.4 0.13 4.85 4.95 90 1000.3
20260501175231 16 171 3.2 6.4 0.13 4.85 4.95 90 1000.1
20260501175132 16 30 3.2 6.4 0.13 4.85 4.95 90 999.7
20260501175034 16 338 3.2 6.4 0.13 4.85 4.95 90 999.2
20260501174926 16 317 1.6 6.4 0.13 4.85 4.95 90 998.8
20260501174821 16 100 3.2 6.4 0.13 4.85 4.95 90 998.6
20260501174716 16 131 3.2 6.4 0.13 4.85 4.95 90 999.0
20260501174615 16 10 4.8 6.4 0.13 4.85 4.93 90 999.9
20260501174515 16 127 3.2 6.4 0.10 4.85 4.93 90 1000.5
20260501174410 16 18 1.6 6.4 0.10 4.85 4.93 90 1000.7
20260501174308 16 186 1.6 6.4 0.10 4.85 4.93 90 1000.7
20260501174203 16 247 1.6 6.4 0.10 4.85 4.93 90 1000.7
20260501174103 16 48 1.6 6.4 0.10 4.85 4.93 90 1000.9
20260501174003 16 162 1.6 6.4 0.10 4.85 4.93 90 1001.3
20260501173904 16 162 3.2 6.4 0.10 4.85 4.93 90 1001.7
20260501173803 16 162 1.6 6.4 0.10 4.85 4.93 90 1002.0
20260501173704 16 296 3.2 6.4 0.10 4.85 4.93 90 1002.2
20260501173603 16 68 1.6 6.4 0.10 4.85 4.93 90 1002.3
20260501173504 16 63 1.6 4.8 0.10 4.85 4.93 90 1002.3
20260501173404 16 66 1.6 4.8 0.10 4.85 4.90 90 1002.3